• In Moldova, Republic
  • List of Countries
  • For 7 days
  • Water Temperature
  • Satellite Maps
  • Weather Map
  • Weather Widgets
  • user-avatar
    Login

    Hourly Weather Sarajevo

    Today, 23 March, Saturday

    Time Temperature Precipitation Wind Pressure Humidity
    00:00 +3°C° 0 mm 2 mps 693 mmHg 80%
    01:00 +3°C° 0 mm 2 mps 693 mmHg 81%
    02:00 +3°C° 0 mm 2 mps 693 mmHg 81%
    03:00 +3°C° 0 mm 2 mps 693 mmHg 81%
    04:00 +3°C° 0 mm 2 mps 693 mmHg 80%
    05:00 +3°C° 0 mm 2 mps 693 mmHg 78%
    06:00 +4°C° 0 mm 2 mps 693 mmHg 76%
    07:00 +4°C° 0 mm 2 mps 693 mmHg 74%
    08:00 +7°C° 0 mm 2 mps 693 mmHg 67%
    09:00 +9°C° 0 mm 2 mps 693 mmHg 59%
    10:00 +11°C° 0 mm 3 mps 694 mmHg 52%
    11:00 +12°C° 0 mm 3 mps 694 mmHg 50%
    12:00 +14°C° 0 mm 3 mps 694 mmHg 48%
    13:00 +16°C° 0 mm 3 mps 694 mmHg 47%
    14:00 +14°C° 0 mm 3 mps 693 mmHg 49%
    15:00 +14°C° 0 mm 3 mps 693 mmHg 52%
    16:00 +14°C° 0 mm 3 mps 693 mmHg 54%
    17:00 +12°C° 0 mm 3 mps 693 mmHg 63%
    18:00 +10°C° 0 mm 3 mps 692 mmHg 72%
    19:00 +8°C° 0 mm 2 mps 692 mmHg 81%
    20:00 +7°C° 0 mm 2 mps 692 mmHg 83%
    21:00 +6°C° 0 mm 2 mps 692 mmHg 86%
    22:00 +6°C° 0 mm 2 mps 692 mmHg 89%
    23:00 +5°C° 0 mm 2 mps 692 mmHg 89%

    Tomorrow, 24 March, Sunday

    Time Temperature Precipitation Wind Pressure Humidity
    00:00 +5°C° 0 mm 2 mps 692 mmHg 90%
    01:00 +5°C° 0 mm 2 mps 692 mmHg 90%
    02:00 +4°C° 0 mm 2 mps 692 mmHg 88%
    03:00 +4°C° 0 mm 2 mps 692 mmHg 86%
    04:00 +4°C° 0 mm 2 mps 692 mmHg 84%
    05:00 +4°C° 0 mm 2 mps 692 mmHg 79%
    06:00 +5°C° 0 mm 2 mps 692 mmHg 74%
    07:00 +5°C° 0 mm 2 mps 692 mmHg 69%
    08:00 +8°C° 0 mm 2 mps 692 mmHg 58%
    09:00 +10°C° 0 mm 2 mps 693 mmHg 47%
    10:00 +14°C° 0 mm 2 mps 693 mmHg 36%
    11:00 +15°C° 0 mm 1 mps 693 mmHg 34%
    12:00 +16°C° 0 mm 1 mps 693 mmHg 32%
    13:00 +18°C° 0 mm 1 mps 693 mmHg 30%
    14:00 +18°C° 0 mm 1 mps 692 mmHg 31%
    15:00 +18°C° 0 mm 1 mps 692 mmHg 33%
    16:00 +18°C° 0 mm 1 mps 691 mmHg 34%
    17:00 +14°C° 0 mm 1 mps 691 mmHg 42%
    18:00 +11°C° 0 mm 0 mps 690 mmHg 49%
    19:00 +9°C° 0 mm 0 mps 690 mmHg 57%
    20:00 +8°C° 0 mm 0 mps 690 mmHg 59%
    21:00 +8°C° 0 mm 0 mps 690 mmHg 61%
    22:00 +8°C° 0 mm 1 mps 690 mmHg 63%
    23:00 +8°C° 0 mm 1 mps 689 mmHg 64%

    Day after tomorrow, 25 March, Monday

    Time Temperature Precipitation Wind Pressure Humidity
    00:00 +8°C° 0 mm 1 mps 689 mmHg 65%
    01:00 +7°C° 0 mm 1 mps 689 mmHg 67%
    02:00 +7°C° 0 mm 1 mps 688 mmHg 68%
    03:00 +7°C° 0 mm 1 mps 688 mmHg 68%
    04:00 +6°C° 0 mm 1 mps 688 mmHg 69%
    05:00 +7°C° 0 mm 1 mps 688 mmHg 68%
    06:00 +7°C° 0 mm 1 mps 688 mmHg 66%
    07:00 +8°C° 0 mm 1 mps 688 mmHg 65%
    08:00 +10°C° 0 mm 1 mps 688 mmHg 56%
    09:00 +13°C° 0 mm 1 mps 688 mmHg 48%
    10:00 +15°C° 0 mm 1 mps 689 mmHg 40%
    11:00 +15°C° 0 mm 1 mps 688 mmHg 39%
    12:00 +16°C° 0 mm 1 mps 688 mmHg 39%
    13:00 +17°C° 0 mm 2 mps 688 mmHg 38%
    14:00 +16°C° 0 mm 2 mps 687 mmHg 42%
    15:00 +15°C° 0 mm 2 mps 686 mmHg 46%
    16:00 +15°C° 0 mm 2 mps 686 mmHg 50%
    17:00 +13°C° 0 mm 2 mps 685 mmHg 60%
    18:00 +11°C° 0 mm 1 mps 685 mmHg 71%
    19:00 +9°C° 0 mm 1 mps 685 mmHg 81%
    20:00 +9°C° 0 mm 1 mps 685 mmHg 84%
    21:00 +8°C° 0 mm 1 mps 685 mmHg 87%
    22:00 +6°C° 0 mm 0 mps 686 mmHg 90%
    23:00 +7°C° 0.7 mm 1 mps 686 mmHg 91%

    26 March, Tuesday

    Time Temperature Precipitation Wind Pressure Humidity
    00:00 +5°C° 0.7 mm 3 mps 687 mmHg 92%
    01:00 +4°C° 0.7 mm 4 mps 687 mmHg 92%
    02:00 +3°C° 0.6 mm 4 mps 687 mmHg 90%
    03:00 +3°C° 0.6 mm 4 mps 687 mmHg 87%
    04:00 +1°C° 0.6 mm 5 mps 687 mmHg 85%
    05:00 0°C° 0.1 mm 5 mps 687 mmHg 85%
    06:00 0°C° 0.1 mm 5 mps 687 mmHg 85%
    07:00 0°C° 0.1 mm 4 mps 688 mmHg 84%
    08:00 -1°C° 0.5 mm 4 mps 688 mmHg 85%
    09:00 -1°C° 0.5 mm 5 mps 688 mmHg 85%
    10:00 -1°C° 0.5 mm 5 mps 688 mmHg 85%
    11:00 -1°C° 0.6 mm 5 mps 689 mmHg 84%
    12:00 -1°C° 0.6 mm 4 mps 689 mmHg 84%
    13:00 0°C° 0.6 mm 4 mps 689 mmHg 83%
    14:00 0°C° 0.3 mm 4 mps 689 mmHg 82%
    15:00 0°C° 0.3 mm 5 mps 689 mmHg 82%
    16:00 0°C° 0.3 mm 5 mps 689 mmHg 81%
    17:00 -1°C° 0 mm 4 mps 689 mmHg 82%
    18:00 -1°C° 0 mm 4 mps 689 mmHg 83%
    19:00 -2°C° 0 mm 4 mps 690 mmHg 84%
    20:00 -2°C° 0 mm 4 mps 690 mmHg 85%
    21:00 -2°C° 0 mm 4 mps 690 mmHg 85%
    22:00 -2°C° 0 mm 4 mps 691 mmHg 85%
    23:00 -2°C° 0 mm 4 mps 691 mmHg 85%

    27 March, Wednesday

    Time Temperature Precipitation Wind Pressure Humidity
    00:00 -2°C° 0 mm 4 mps 691 mmHg 85%
    01:00 -3°C° 0 mm 4 mps 691 mmHg 85%
    02:00 -3°C° 0 mm 4 mps 691 mmHg 86%
    03:00 -4°C° 0 mm 3 mps 691 mmHg 87%
    04:00 -4°C° 0 mm 3 mps 691 mmHg 87%
    05:00 -4°C° 0 mm 3 mps 691 mmHg 85%
    06:00 -3°C° 0 mm 4 mps 691 mmHg 83%
    07:00 -3°C° 0 mm 4 mps 691 mmHg 81%
    08:00 -1°C° 0 mm 4 mps 691 mmHg 76%
    09:00 0°C° 0 mm 4 mps 692 mmHg 72%
    10:00 +1°C° 0 mm 4 mps 692 mmHg 68%
    11:00 +3°C° 0 mm 4 mps 692 mmHg 65%
    12:00 +4°C° 0 mm 4 mps 692 mmHg 62%
    13:00 +5°C° 0 mm 4 mps 692 mmHg 59%
    14:00 +4°C° 0 mm 4 mps 691 mmHg 59%
    15:00 +4°C° 0 mm 4 mps 691 mmHg 58%
    16:00 +4°C° 0 mm 4 mps 691 mmHg 58%
    17:00 +3°C° 0 mm 4 mps 691 mmHg 63%
    18:00 0°C° 0 mm 4 mps 691 mmHg 68%
    19:00 0°C° 0 mm 3 mps 691 mmHg 73%
    20:00 -1°C° 0 mm 3 mps 691 mmHg 74%
    21:00 -1°C° 0 mm 3 mps 691 mmHg 74%
    22:00 -1°C° 0 mm 3 mps 692 mmHg 75%
    23:00 -2°C° 0 mm 3 mps 692 mmHg 76%

    28 March, Thursday

    Time Temperature Precipitation Wind Pressure Humidity
    00:00 -2°C° 0 mm 3 mps 692 mmHg 77%
    01:00 -2°C° 0 mm 3 mps 692 mmHg 78%
    02:00 -2°C° 0 mm 3 mps 692 mmHg 79%
    03:00 -2°C° 0 mm 3 mps 692 mmHg 80%
    04:00 -2°C° 0 mm 3 mps 692 mmHg 81%
    05:00 -2°C° 0 mm 3 mps 692 mmHg 78%
    06:00 -1°C° 0 mm 3 mps 692 mmHg 74%
    07:00 -1°C° 0 mm 3 mps 692 mmHg 71%
    08:00 0°C° 0 mm 4 mps 693 mmHg 66%
    09:00 +1°C° 0 mm 4 mps 693 mmHg 61%
    10:00 +4°C° 0 mm 4 mps 693 mmHg 56%
    11:00 +4°C° 0 mm 4 mps 693 mmHg 56%
    12:00 +5°C° 0 mm 4 mps 693 mmHg 56%
    13:00 +5°C° 0 mm 4 mps 693 mmHg 55%
    14:00 +5°C° 0 mm 4 mps 693 mmHg 57%
    15:00 +5°C° 0 mm 4 mps 693 mmHg 59%
    16:00 +4°C° 0 mm 4 mps 693 mmHg 61%
    17:00 +3°C° 0 mm 3 mps 693 mmHg 68%
    18:00 +2°C° 0 mm 3 mps 693 mmHg 75%
    19:00 +1°C° 0 mm 3 mps 693 mmHg 81%
    20:00 +1°C° 0 mm 3 mps 693 mmHg 82%
    21:00 +1°C° 0 mm 3 mps 694 mmHg 83%
    22:00 +1°C° 0 mm 3 mps 694 mmHg 83%
    23:00 0°C° 0 mm 3 mps 694 mmHg 86%
    Show more